User: anonymous   Login
Location: *
(43.9905°S, 176.4941°W)
Time: 00:24:19
(UTC+00:00)
Language:

Cosmos 1437 Rocket - Orbit

View from above orbital plane
View from above orbital plane
View from above satellite
View from above satellite

Ground track
Ground track

The orbit data is extracted from the following two-line orbital elements,

1 13771U 83003B   20047.48960581 +.00000611 +00000-0 +34936-4 0  9994
2 13771 081.1721 320.0038 0038867 017.4143 342.8405 15.10552366020832
Epoch (UTC): 16 February 2020 11:45:01
Eccentricity: 0.0038867
inclination: 81.1721°
perigee height: 507 km
apogee height: 561 km
right ascension of ascending node: 320.0038°
argument of perigee: 17.4143°
revolutions per day: 15.10552366
mean anomaly at epoch: 342.8405°
orbit number at epoch: 2083

The dashed part of the orbit path shows where the satellite is in the earth's shadow,  

DLR